SITRO-AIS 27

Last updated on Mon Sep 21 2026 00:03:45 GMT+0000 (Coordinated Universal Time)

1 59068U 24039T 26263.59107801 .00002511 00000+0 19403-3 0 9994 2 59068 95.3819 300.8159 0142291 354.2418 5.7165 14.94283380138982
UTC large
Height (km)
Speed (km/s)
/
Latitude / Longitude
Inclination (degrees)
Orbital Period (minutes)
Azimuth
Elevation
Range (km)
Doppler Factor

Next 0 passes for location: London (51.5072 / 0.1276)

No passes found over London.
SITRO-AIS 27